Showing default

HG-01, 59069

Orbit data source: Space-Track

HG-01, 59069 is a payload satellite owned by CNSA (CN) in GEO that was launched on Thu, 29 Feb 2024 UTC via a CHANG ZHENG 3B launch vehicle from the Xichang Space Center, China (XSC). Payload-class satellites include a variety of spacecraft equipped with specific instruments for various scientific and technological missions. These include communications satellites like Starlink; space stations such as the ISS; scientific satellites like the Hubble; Earth observation satellites from companies like Planet Labs, Umbra, and HawkEye 360; GPS; miniature CubeSats for education and research; and military/defense satellites.

Not visible in the next 10 days
Identifier
59069, 2024-040A
Orbit
GEO
Country
Flag of CNCN / PRC
Related business
Manufacturer
CAST
Mission
Operational Civil Communications
Bus & Motor
DFH-4?, FY-25?
Mass
~4,000 kg wet, ~2,000 kg dry
Launch date (UTC)
2024-02-29 (2 years ago)
Launch vehicle
CHANG ZHENG 3B
Launch site
Xichang Space Center, China (XSC)
Object type
Payload
Rocket body
Debris
Shape & HBR
Box + 2 Pan, 10.0 m
Radar Cross Section
17.671 m², Large (>1 m²)

Expand to show TLE details & history
Last TLE update: 2 days ago

TLE from 2 days ago
0 HG-01
1 59069U 24040A   26171.25595685  .00000151  00000-0  00000+0 0  9997
2 59069   0.0688 329.7998 0003106  66.6512 357.7319  1.00271141  7353
Epoch: 2026-06-20T06:08Z
TLE epoch observation values (Epoch: 2026-06-20T06:08:34.671Z)
Latitude
0.07342°
Longitude
33.57588°
Altitude
35,773.188 km
Speed
3.076 km/s
True Right ascension
02h 16m 46s
True Declination
0° 04' 24"
Sunlit
Object was in daylight at epoch
Visualization orbit readout
Latitude
Unknown
Longitude
Unknown
Altitude
Unknown
Speed
Unknown
Apparent Right ascension
Unknown
Apparent Declination
Unknown
Sunlit
N/A
Visualization observer readout
Local Sidereal Time
21:32:21
Azimuth
Unknown
Elevation
Unknown
Doppler factor
Unknown
Orbital elements
Apogee altitude
35,800.943 km
Perigee altitude
35,774.749 km
Semi-major axis
42,165.983 km
Eccentricity
0.00031
Inclination
0.0688°
RAAN
329.7998°
Arg. of periapsis
66.6512°
True anomaly
357.73049°
Mean anomaly
357.7319°
Eccentric anomaly
357.7312°
Mean motion
0.25067 °/min
Orbital period
1,436.16 mins
BSTAR
0
Loading maneuver chart data...
Computing Atmospheric mass density...
Loading historical data...
Loading historical data...
Loading historical data...
Loading historical data...
Loading historical data...
Loading historical data...
Loading historical data...
Other satellites on launch #40 in the year 2024 (2024-02-29 UTC)

Documentation

Showing up to 5 results
|